Regional Weather Roundup
Issued by NWS

Home | Current Version | Previous Version | Text Only | Print | Product List | Glossary Off
Versions: 1 2 3 4 5 6 7 8 9 10 11 12 13 14 15 16 17 18 19 20 21 22 23 24 25 26 27 28 29 30 31 32 33 34 35 36 37 38 39 40 41 42 43 44 45 46 47 48 49 50

000
ASUS45 KABQ 021810
RWRNM
WEATHER ROUNDUP FOR NEW MEXICO
NATIONAL WEATHER SERVICE ALBUQUERQUE NM
1100 AM MST MON MAR 02 2015

NOTE: "FAIR" MEANS FEW OR NO CLOUDS BELOW 12,000 FEET AGL WITH NO
       SIGNIFICANT WEATHER OR OBSTRUCTIONS TO VISION.

      THIS PRODUCT IS RELEASED AS TWO VERSIONS.  ONE VERSION NEAR
      THE TOP OF THE HOUR CONTAINING PRELIMINARY DATA FROM ALBUQUERQUE
      AND OTHER STATIONS.  A FINAL VERSION WITH ADDITIONAL DATA IS
      ISSUED ABOUT 10 MINUTES AFTER THE HOUR.

NMZ501-503-504-510>518-021900-
NORTHWEST PLATEAU/NORTHCENTRAL MOUNTAINS

CITY           SKY/WX    TMP DP  RH WIND       PRES   REMARKS
FARMINGTON     SUNNY     52  36  54 E20       29.88F
6HR MIN TEMP:  35; 6HR MAX TEMP:  52;

LOS ALAMOS     MOSUNNY   37  28  69 SE7       30.05F WCI  31
SANTA FE       MOSUNNY   41  28  60 S16       30.04F
6HR MIN TEMP:  30; 6HR MAX TEMP:  41;

TAOS           MOSUNNY   37  27  65 CALM      30.05F
ANGEL FIRE     CLOUDY    44  26  48 SW12G23   30.04F

$$
NMZ402-403-502-505>509-021900-
WESTCENTRAL MOUNTAINS/SOUTHWEST MOUNTAINS

CITY           SKY/WX    TMP DP  RH WIND       PRES   REMARKS
GALLUP         MOSUNNY   54  31  41 S29G44    29.90F
6HR MIN TEMP:  30; 6HR MAX TEMP:  54;

GRANTS         PTSUNNY   57  31  36 S20G40    29.98S
SILVER CITY    CLOUDY    55  32  41 S8        30.09S

$$
NMZ407-409-411-412-021900-
SOUTHERN DESERTS

CITY           SKY/WX    TMP DP  RH WIND       PRES   REMARKS
LORDSBURG      CLOUDY    59  39  47 S16G24    30.04S
DEMING         CLOUDY    65  34  31 S10       30.03F
6HR MIN TEMP:  50; 6HR MAX TEMP:  68;

LAS CRUCES     CLOUDY    57  31  36 S10       30.07F
HOLLOMAN AFB   CLOUDY    64  33  31 S20G28    30.03S
ALAMOGORDO     CLOUDY    63  32  31 S21G30    30.06F
T OR C         CLOUDY    61  31  32 S15       30.02F
6HR MIN TEMP:  53; 6HR MAX TEMP:  61;


$$
NMZ519>523-021900-
CENTRAL VALLEYS/CENTRAL HIGHLANDS

CITY           SKY/WX    TMP DP  RH WIND       PRES   REMARKS
ALBUQUERQUE    CLOUDY    46  32  58 N6        30.02F
6HR MIN TEMP:  35; 6HR MAX TEMP:  46;

DOUBLE EAGLE   CLOUDY    43  32  65 NE9       30.03F
MORIARTY ARPT  FAIR      38  30  73 S10       30.09F WCI  30
6HR MIN TEMP:  29; 6HR MAX TEMP:  38;

CLINES CORNERS CLOUDY    33  32  96 S12       30.06F WCI  24
6HR MIN TEMP:  26; 6HR MAX TEMP:  33;

BELEN          FAIR      55  29  37 SE9       30.00F
6HR MIN TEMP:  37; 6HR MAX TEMP:  55;

SOCORRO          N/A     60  29  30 S25G32    29.98F
6HR MIN TEMP:  45; 6HR MAX TEMP:  60;


$$
NMZ524>526-539-540-021900-
SOUTHCENTRAL MOUNTAINS

CITY           SKY/WX    TMP DP  RH WIND       PRES   REMARKS
RUIDOSO        CLOUDY    57  32  38 SW25G37   30.11F

$$
NMZ527>531-021900-
NORTHEAST HIGHLANDS/NORTHEAST PLAINS

CITY           SKY/WX    TMP DP  RH WIND       PRES   REMARKS
LAS VEGAS      CLOUDY    27  25  92 S17       30.07F WCI  14
6HR MIN TEMP:  23; 6HR MAX TEMP:  27;

RATON          FOG       27  26  96 SW6       30.06F VSB 1   WCI  20
6HR MIN TEMP:  24; 6HR MAX TEMP:  27;

CLAYTON        CLOUDY    29  26  89 SW32G41   30.05F WCI  13
6HR MIN TEMP:  24; 6HR MAX TEMP:  29;


$$
NMZ532>537-021900-
EASTCENTRAL PLAINS

CITY           SKY/WX    TMP DP  RH WIND       PRES   REMARKS
TUCUMCARI      CLOUDY    33  30  88 S8        30.17F WCI  26
6HR MIN TEMP:  29; 6HR MAX TEMP:  33;

CANNON AFB     FOG       32  30  93 S12       30.18F VSB 1/2 WCI  23
                                      6HR PCP: TRACE;

CLOVIS AIRPORT CLOUDY    30  28  93 S13       30.19F VSB 1/2 WCI  20

$$
NMZ028-029-538-021900-
SOUTHEAST PLAINS

CITY           SKY/WX    TMP DP  RH WIND       PRES   REMARKS
ROSWELL        CLOUDY    35  33  92 SE14      30.19F FOG     WCI  26
6HR MIN TEMP:  32; 6HR MAX TEMP:  35;

ARTESIA        CLOUDY    36  36 100 SE14      30.22F FOG     WCI  27
CARLSBAD       CLOUDY    37  33  85 SE13      30.22F WCI  29
6HR MIN TEMP:  34; 6HR MAX TEMP:  37;

HOBBS          CLOUDY    32  32 100 E6        30.24F WCI  26


$$


USA.gov is the U.S. government's official web portal to all federal, state and local government web resources and services.